Time,TemperatureF,DewpointF,PressureIn,WindDirection,WindDirectionDegrees,WindSpeedMPH,WindSpeedGustMPH,Humidity,HourlyPrecipIn,Conditions,Clouds,dailyrainin,SoftwareType,DateUTC
2013-12-15 00:03:00,47.3,43.6,30.12,NNW,328,0.0,1.0,87,0.00,,,0.85,Wunderground v.1.15,2013-12-15 06:03:00,
2013-12-15 00:08:00,47.3,43.6,30.12,North,9,0.0,2.0,87,0.00,,,0.00,Wunderground v.1.15,2013-12-15 06:08:00,
2013-12-15 00:14:00,47.3,43.6,30.12,WNW,295,1.0,2.0,87,0.00,,,0.00,Wunderground v.1.15,2013-12-15 06:14:00,
2013-12-15 00:19:00,47.3,43.3,30.13,North,5,0.0,2.0,86,0.00,,,0.00,Wunderground v.1.15,2013-12-15 06:19:00,
2013-12-15 00:24:00,47.3,43.3,30.13,NNW,336,0.0,1.0,86,0.00,,,0.00,Wunderground v.1.15,2013-12-15 06:24:00,
2013-12-15 00:30:00,47.2,43.2,30.13,East,89,1.0,1.0,86,0.00,,,0.00,Wunderground v.1.15,2013-12-15 06:30:00,
2013-12-15 00:35:00,47.1,43.1,30.13,NW,314,3.0,5.0,86,0.00,,,0.00,Wunderground v.1.15,2013-12-15 06:35:00,
2013-12-15 00:41:00,46.9,43.2,30.13,North,4,1.0,2.0,87,0.00,,,0.00,Wunderground v.1.15,2013-12-15 06:41:00,
2013-12-15 00:46:00,46.6,42.9,30.14,North,357,1.0,2.0,87,0.00,,,0.00,Wunderground v.1.15,2013-12-15 06:46:00,
2013-12-15 00:51:00,46.3,42.6,30.14,East,95,2.0,8.0,87,0.00,,,0.00,Wunderground v.1.15,2013-12-15 06:51:00,
2013-12-15 00:57:00,46.0,42.6,30.14,NW,321,3.0,8.0,88,0.00,,,0.00,Wunderground v.1.15,2013-12-15 06:57:00,
2013-12-15 01:02:00,45.9,42.5,30.14,SE,130,0.0,2.0,88,0.00,,,0.00,Wunderground v.1.15,2013-12-15 07:02:00,
2013-12-15 01:08:00,45.8,42.4,30.14,NNW,327,0.0,2.0,88,0.00,,,0.00,Wunderground v.1.15,2013-12-15 07:08:00,
2013-12-15 01:13:00,45.6,42.0,30.15,NE,37,5.0,5.0,87,0.00,,,0.00,Wunderground v.1.15,2013-12-15 07:13:00,
2013-12-15 01:19:00,45.4,41.5,30.14,West,263,0.0,6.0,86,0.00,,,0.00,Wunderground v.1.15,2013-12-15 07:19:00,
2013-12-15 01:24:00,45.3,41.4,30.15,West,274,0.0,2.0,86,0.00,,,0.00,Wunderground v.1.15,2013-12-15 07:24:00,
2013-12-15 01:29:00,45.1,40.9,30.15,NW,323,1.0,1.0,85,0.00,,,0.00,Wunderground v.1.15,2013-12-15 07:29:00,
2013-12-15 01:35:00,45.0,40.5,30.15,NW,323,0.0,4.0,84,0.00,,,0.00,Wunderground v.1.15,2013-12-15 07:35:00,
2013-12-15 01:41:00,44.9,40.4,30.15,West,270,1.0,2.0,84,0.00,,,0.00,Wunderground v.1.15,2013-12-15 07:41:00,
2013-12-15 01:46:00,44.8,40.3,30.15,NNE,27,1.0,3.0,84,0.00,,,0.00,Wunderground v.1.15,2013-12-15 07:46:00,
2013-12-15 01:52:00,44.7,40.2,30.15,NE,56,0.0,3.0,84,0.00,,,0.00,Wunderground v.1.15,2013-12-15 07:52:00,
2013-12-15 01:58:00,44.7,40.2,30.16,NNW,328,0.0,3.0,84,0.00,,,0.00,Wunderground v.1.15,2013-12-15 07:58:00,
2013-12-15 02:03:00,44.7,40.5,30.15,NW,319,1.0,2.0,85,0.00,,,0.00,Wunderground v.1.15,2013-12-15 08:03:00,
2013-12-15 02:08:00,44.6,40.4,30.16,ENE,67,5.0,5.0,85,0.00,,,0.00,Wunderground v.1.15,2013-12-15 08:08:00,
2013-12-15 02:13:00,44.6,40.4,30.16,NW,309,0.0,2.0,85,0.00,,,0.00,Wunderground v.1.15,2013-12-15 08:13:00,
2013-12-15 02:18:00,44.5,40.3,30.16,SSW,206,0.0,2.0,85,0.00,,,0.00,Wunderground v.1.15,2013-12-15 08:18:00,
2013-12-15 02:23:00,44.6,40.7,30.16,NW,304,0.0,1.0,86,0.00,,,0.00,Wunderground v.1.15,2013-12-15 08:23:00,
2013-12-15 02:28:00,44.5,40.6,30.16,ESE,103,0.0,2.0,86,0.00,,,0.00,Wunderground v.1.15,2013-12-15 08:28:00,
2013-12-15 02:33:00,44.5,40.3,30.16,WNW,285,1.0,4.0,85,0.00,,,0.00,Wunderground v.1.15,2013-12-15 08:33:00,
2013-12-15 02:38:00,44.5,40.0,30.16,NNW,347,0.0,4.0,84,0.00,,,0.00,Wunderground v.1.15,2013-12-15 08:38:00,
2013-12-15 02:43:00,44.4,39.9,30.16,West,259,0.0,1.0,84,0.00,,,0.00,Wunderground v.1.15,2013-12-15 08:43:00,
2013-12-15 02:49:00,44.4,39.9,30.17,NW,319,0.0,3.0,84,0.00,,,0.00,Wunderground v.1.15,2013-12-15 08:49:00,
2013-12-15 02:54:00,44.4,39.9,30.17,South,177,4.0,5.0,84,0.00,,,0.00,Wunderground v.1.15,2013-12-15 08:54:00,
2013-12-15 02:59:00,44.4,39.2,30.17,SSE,159,0.0,13.0,82,0.00,,,0.00,Wunderground v.1.15,2013-12-15 08:59:00,
2013-12-15 03:04:00,44.4,39.6,30.17,NNW,337,0.0,9.0,83,0.00,,,0.00,Wunderground v.1.15,2013-12-15 09:04:00,
2013-12-15 03:09:00,44.3,39.2,30.17,East,85,0.0,9.0,82,0.00,,,0.00,Wunderground v.1.15,2013-12-15 09:09:00,
2013-12-15 03:14:00,44.3,39.5,30.17,WNW,300,0.0,4.0,83,0.00,,,0.00,Wunderground v.1.15,2013-12-15 09:14:00,
2013-12-15 03:19:00,44.2,39.1,30.17,ENE,75,1.0,4.0,82,0.00,,,0.00,Wunderground v.1.15,2013-12-15 09:19:00,
2013-12-15 03:24:00,44.2,39.4,30.17,WNW,297,1.0,4.0,83,0.00,,,0.00,Wunderground v.1.15,2013-12-15 09:24:00,
2013-12-15 03:29:00,44.1,39.0,30.17,NNW,340,2.0,5.0,82,0.00,,,0.00,Wunderground v.1.15,2013-12-15 09:29:00,
2013-12-15 03:34:00,44.1,39.0,30.17,North,6,1.0,6.0,82,0.00,,,0.00,Wunderground v.1.15,2013-12-15 09:34:00,
2013-12-15 03:39:00,44.0,38.9,30.17,East,94,6.0,6.0,82,0.00,,,0.00,Wunderground v.1.15,2013-12-15 09:39:00,
2013-12-15 03:44:00,44.0,38.9,30.17,NW,307,0.0,3.0,82,0.00,,,0.00,Wunderground v.1.15,2013-12-15 09:44:00,
2013-12-15 03:49:00,43.9,38.4,30.17,NNE,33,7.0,8.0,81,0.00,,,0.00,Wunderground v.1.15,2013-12-15 09:49:00,
2013-12-15 03:54:00,43.9,38.4,30.17,NE,43,4.0,11.0,81,0.00,,,0.00,Wunderground v.1.15,2013-12-15 09:54:00,
2013-12-15 03:59:00,43.9,38.1,30.17,NW,321,0.0,11.0,80,0.00,,,0.00,Wunderground v.1.15,2013-12-15 09:59:00,
2013-12-15 04:04:00,43.8,38.0,30.17,WNW,300,0.0,5.0,80,0.00,,,0.00,Wunderground v.1.15,2013-12-15 10:04:00,
2013-12-15 04:09:00,43.8,38.0,30.18,NW,314,2.0,5.0,80,0.00,,,0.00,Wunderground v.1.15,2013-12-15 10:09:00,
2013-12-15 04:14:00,43.7,37.9,30.18,NW,307,0.0,8.0,80,0.00,,,0.00,Wunderground v.1.15,2013-12-15 10:14:00,
2013-12-15 04:19:00,43.6,38.2,30.18,ESE,104,1.0,8.0,81,0.00,,,0.00,Wunderground v.1.15,2013-12-15 10:19:00,
2013-12-15 04:24:00,43.5,37.7,30.18,WNW,295,3.0,5.0,80,0.00,,,0.00,Wunderground v.1.15,2013-12-15 10:24:00,
2013-12-15 04:29:00,43.5,37.7,30.18,ESE,107,2.0,7.0,80,0.00,,,0.00,Wunderground v.1.15,2013-12-15 10:29:00,
2013-12-15 04:34:00,43.4,37.6,30.18,NNW,344,7.0,12.0,80,0.00,,,0.00,Wunderground v.1.15,2013-12-15 10:34:00,
2013-12-15 04:38:00,43.3,37.9,30.18,ENE,68,1.0,12.0,81,0.00,,,0.00,Wunderground v.1.15,2013-12-15 10:38:00,
2013-12-15 04:43:00,43.3,37.9,30.18,WSW,256,0.0,5.0,81,0.00,,,0.00,Wunderground v.1.15,2013-12-15 10:43:00,
2013-12-15 04:48:00,43.3,37.9,30.18,West,269,0.0,12.0,81,0.00,,,0.00,Wunderground v.1.15,2013-12-15 10:48:00,
2013-12-15 04:54:00,43.2,37.8,30.18,West,266,3.0,9.0,81,0.00,,,0.00,Wunderground v.1.15,2013-12-15 10:54:00,
2013-12-15 04:59:00,43.3,37.9,30.19,WSW,248,0.0,9.0,81,0.00,,,0.00,Wunderground v.1.15,2013-12-15 10:59:00,
2013-12-15 05:04:00,43.2,37.8,30.19,NW,325,1.0,3.0,81,0.00,,,0.00,Wunderground v.1.15,2013-12-15 11:04:00,
2013-12-15 05:08:00,43.2,37.8,30.19,NW,309,3.0,5.0,81,0.00,,,0.00,Wunderground v.1.15,2013-12-15 11:08:00,
2013-12-15 05:14:00,43.1,37.7,30.19,SSE,166,0.0,6.0,81,0.00,,,0.00,Wunderground v.1.15,2013-12-15 11:14:00,
2013-12-15 05:19:00,43.1,37.7,30.19,North,1,0.0,10.0,81,0.00,,,0.00,Wunderground v.1.15,2013-12-15 11:19:00,
2013-12-15 05:24:00,43.0,37.6,30.19,NNE,15,3.0,7.0,81,0.00,,,0.00,Wunderground v.1.15,2013-12-15 11:24:00,
2013-12-15 05:29:00,42.9,37.5,30.19,NE,54,1.0,9.0,81,0.00,,,0.00,Wunderground v.1.15,2013-12-15 11:29:00,
2013-12-15 05:34:00,42.9,37.5,30.20,NE,43,0.0,3.0,81,0.00,,,0.00,Wunderground v.1.15,2013-12-15 11:34:00,
2013-12-15 05:39:00,42.9,37.8,30.20,NW,311,1.0,4.0,82,0.00,,,0.00,Wunderground v.1.15,2013-12-15 11:39:00,
2013-12-15 05:44:00,42.8,37.7,30.20,North,4,0.0,3.0,82,0.00,,,0.00,Wunderground v.1.15,2013-12-15 11:44:00,
2013-12-15 05:49:00,42.8,37.7,30.21,NNW,338,0.0,3.0,82,0.00,,,0.00,Wunderground v.1.15,2013-12-15 11:49:00,
2013-12-15 05:54:00,42.8,37.7,30.21,NNE,30,0.0,3.0,82,0.00,,,0.00,Wunderground v.1.15,2013-12-15 11:54:00,
2013-12-15 05:59:00,42.7,37.6,30.21,NW,322,0.0,3.0,82,0.00,,,0.00,Wunderground v.1.15,2013-12-15 11:59:00,
2013-12-15 06:04:00,42.8,37.7,30.21,WNW,296,0.0,4.0,82,0.00,,,0.00,Wunderground v.1.15,2013-12-15 12:04:00,
2013-12-15 06:09:00,42.8,38.0,30.22,South,175,0.0,4.0,83,0.00,,,0.00,Wunderground v.1.15,2013-12-15 12:09:00,
2013-12-15 06:14:00,42.7,37.9,30.22,NW,325,4.0,5.0,83,0.00,,,0.00,Wunderground v.1.15,2013-12-15 12:14:00,
2013-12-15 06:19:00,42.7,37.6,30.22,East,96,2.0,6.0,82,0.00,,,0.00,Wunderground v.1.15,2013-12-15 12:19:00,
2013-12-15 06:24:00,42.6,37.8,30.22,NE,42,0.0,4.0,83,0.00,,,0.00,Wunderground v.1.15,2013-12-15 12:24:00,
2013-12-15 06:29:00,42.6,37.8,30.23,NNE,30,0.0,8.0,83,0.00,,,0.00,Wunderground v.1.15,2013-12-15 12:29:00,
2013-12-15 06:34:00,42.5,37.7,30.23,WSW,255,1.0,3.0,83,0.00,,,0.00,Wunderground v.1.15,2013-12-15 12:34:00,
2013-12-15 06:39:00,42.4,37.3,30.23,WSW,246,0.0,5.0,82,0.00,,,0.00,Wunderground v.1.15,2013-12-15 12:39:00,
2013-12-15 06:44:00,42.3,37.2,30.24,NW,318,0.0,6.0,82,0.00,,,0.00,Wunderground v.1.15,2013-12-15 12:44:00,
2013-12-15 06:49:00,42.2,37.1,30.24,NNE,27,1.0,9.0,82,0.00,,,0.00,Wunderground v.1.15,2013-12-15 12:49:00,
2013-12-15 06:54:00,42.2,37.1,30.24,WSW,245,1.0,5.0,82,0.00,,,0.00,Wunderground v.1.15,2013-12-15 12:54:00,
2013-12-15 06:59:00,42.1,37.0,30.24,WNW,300,1.0,9.0,82,0.00,,,0.00,Wunderground v.1.15,2013-12-15 12:59:00,
2013-12-15 07:04:00,42.1,37.0,30.24,NW,307,0.0,4.0,82,0.00,,,0.00,Wunderground v.1.15,2013-12-15 13:04:00,
2013-12-15 07:09:00,42.1,37.0,30.24,NW,311,3.0,4.0,82,0.00,,,0.00,Wunderground v.1.15,2013-12-15 13:09:00,
2013-12-15 07:14:00,42.0,36.9,30.25,NNW,337,3.0,3.0,82,0.00,,,0.00,Wunderground v.1.15,2013-12-15 13:14:00,
2013-12-15 07:19:00,41.9,36.5,30.25,SE,145,0.0,7.0,81,0.00,,,0.00,Wunderground v.1.15,2013-12-15 13:19:00,
2013-12-15 07:24:00,41.9,36.5,30.25,NW,311,1.0,7.0,81,0.00,,,0.00,Wunderground v.1.15,2013-12-15 13:24:00,
2013-12-15 07:29:00,41.8,36.1,30.25,NW,314,0.0,7.0,80,0.00,,,0.00,Wunderground v.1.15,2013-12-15 13:29:00,
2013-12-15 07:34:00,41.8,36.4,30.25,WNW,294,1.0,2.0,81,0.00,,,0.00,Wunderground v.1.15,2013-12-15 13:34:00,
2013-12-15 07:39:00,41.8,36.4,30.25,NW,316,0.0,7.0,81,0.00,,,0.00,Wunderground v.1.15,2013-12-15 13:39:00,
2013-12-15 07:44:00,41.7,36.3,30.26,East,87,3.0,4.0,81,0.00,,,0.00,Wunderground v.1.15,2013-12-15 13:44:00,
2013-12-15 07:49:00,41.7,36.3,30.26,NW,304,0.0,5.0,81,0.00,,,0.00,Wunderground v.1.15,2013-12-15 13:49:00,
2013-12-15 07:54:00,41.7,36.3,30.26,North,9,0.0,6.0,81,0.00,,,0.00,Wunderground v.1.15,2013-12-15 13:54:00,
2013-12-15 07:59:00,41.7,36.3,30.26,NNW,342,1.0,10.0,81,0.00,,,0.00,Wunderground v.1.15,2013-12-15 13:59:00,
2013-12-15 08:04:00,41.7,36.6,30.26,NNE,25,1.0,2.0,82,0.00,,,0.00,Wunderground v.1.15,2013-12-15 14:04:00,
2013-12-15 08:09:00,41.7,36.6,30.26,NW,322,0.0,6.0,82,0.00,,,0.00,Wunderground v.1.15,2013-12-15 14:09:00,
2013-12-15 08:14:00,41.8,36.7,30.26,WNW,300,2.0,2.0,82,0.00,,,0.00,Wunderground v.1.15,2013-12-15 14:14:00,
2013-12-15 08:19:00,41.7,36.3,30.26,NNW,343,1.0,8.0,81,0.00,,,0.00,Wunderground v.1.15,2013-12-15 14:19:00,
2013-12-15 08:24:00,41.7,36.3,30.26,NNE,26,0.0,9.0,81,0.00,,,0.00,Wunderground v.1.15,2013-12-15 14:24:00,
2013-12-15 08:29:00,41.7,36.3,30.26,NNW,328,2.0,11.0,81,0.00,,,0.00,Wunderground v.1.15,2013-12-15 14:29:00,
2013-12-15 08:34:00,41.6,36.2,30.26,WNW,290,1.0,6.0,81,0.00,,,0.00,Wunderground v.1.15,2013-12-15 14:34:00,
2013-12-15 08:39:00,41.7,36.3,30.26,NNW,330,1.0,6.0,81,0.00,,,0.00,Wunderground v.1.15,2013-12-15 14:39:00,
2013-12-15 08:44:00,41.7,36.3,30.26,NNW,334,0.0,8.0,81,0.00,,,0.00,Wunderground v.1.15,2013-12-15 14:44:00,
2013-12-15 08:49:00,41.8,36.7,30.27,NW,316,0.0,8.0,82,0.00,,,0.00,Wunderground v.1.15,2013-12-15 14:49:00,
2013-12-15 08:54:00,42.0,36.9,30.27,NNE,20,2.0,2.0,82,0.00,,,0.00,Wunderground v.1.15,2013-12-15 14:54:00,
2013-12-15 08:59:00,42.2,37.1,30.27,SSW,211,3.0,6.0,82,0.00,,,0.00,Wunderground v.1.15,2013-12-15 14:59:00,
2013-12-15 09:04:00,42.3,36.9,30.27,East,84,1.0,6.0,81,0.00,,,0.00,Wunderground v.1.15,2013-12-15 15:04:00,
2013-12-15 09:09:00,42.4,36.7,30.27,North,354,5.0,10.0,80,0.00,,,0.00,Wunderground v.1.15,2013-12-15 15:09:00,
2013-12-15 09:14:00,42.5,36.4,30.27,NNE,18,2.0,10.0,79,0.00,,,0.00,Wunderground v.1.15,2013-12-15 15:14:00,
2013-12-15 09:19:00,42.7,36.6,30.28,NE,44,7.0,10.0,79,0.00,,,0.00,Wunderground v.1.15,2013-12-15 15:19:00,
2013-12-15 09:24:00,42.7,36.3,30.28,NW,323,1.0,10.0,78,0.00,,,0.00,Wunderground v.1.15,2013-12-15 15:24:00,
2013-12-15 09:29:00,42.9,37.2,30.28,NNE,20,0.0,10.0,80,0.00,,,0.00,Wunderground v.1.15,2013-12-15 15:29:00,
2013-12-15 09:34:00,43.3,37.2,30.28,NNE,19,2.0,7.0,79,0.00,,,0.00,Wunderground v.1.15,2013-12-15 15:34:00,
2013-12-15 09:39:00,43.3,37.2,30.28,NNW,327,4.0,9.0,79,0.00,,,0.00,Wunderground v.1.15,2013-12-15 15:39:00,
2013-12-15 09:44:00,43.1,36.7,30.28,NE,40,3.0,12.0,78,0.00,,,0.00,Wunderground v.1.15,2013-12-15 15:44:00,
2013-12-15 09:49:00,43.2,37.1,30.29,ENE,64,4.0,12.0,79,0.00,,,0.00,Wunderground v.1.15,2013-12-15 15:49:00,
2013-12-15 09:54:00,43.4,37.0,30.29,WNW,295,1.0,5.0,78,0.00,,,0.00,Wunderground v.1.15,2013-12-15 15:54:00,
2013-12-15 09:59:00,43.4,36.7,30.29,WNW,302,1.0,11.0,77,0.00,,,0.00,Wunderground v.1.15,2013-12-15 15:59:00,
2013-12-15 10:04:00,43.6,36.9,30.28,ESE,113,3.0,10.0,77,0.00,,,0.00,Wunderground v.1.15,2013-12-15 16:04:00,
2013-12-15 10:09:00,43.7,37.0,30.28,North,9,1.0,11.0,77,0.00,,,0.00,Wunderground v.1.15,2013-12-15 16:09:00,
2013-12-15 10:14:00,43.9,36.8,30.28,North,350,4.0,8.0,76,0.00,,,0.00,Wunderground v.1.15,2013-12-15 16:14:00,
2013-12-15 10:19:00,44.3,37.2,30.28,NE,44,4.0,8.0,76,0.00,,,0.00,Wunderground v.1.15,2013-12-15 16:19:00,
2013-12-15 10:24:00,44.5,37.1,30.29,NNW,346,3.0,10.0,75,0.00,,,0.00,Wunderground v.1.15,2013-12-15 16:24:00,
2013-12-15 10:29:00,44.6,37.2,30.29,NW,319,2.0,10.0,75,0.00,,,0.00,Wunderground v.1.15,2013-12-15 16:29:00,
2013-12-15 10:34:00,44.6,37.5,30.29,ENE,60,1.0,4.0,76,0.00,,,0.00,Wunderground v.1.15,2013-12-15 16:34:00,
2013-12-15 10:39:00,45.0,37.6,30.29,NW,309,3.0,5.0,75,0.00,,,0.00,Wunderground v.1.15,2013-12-15 16:39:00,
2013-12-15 10:44:00,45.2,37.4,30.29,NNE,24,2.0,3.0,74,0.00,,,0.00,Wunderground v.1.15,2013-12-15 16:44:00,
2013-12-15 10:49:00,45.0,36.9,30.29,NE,36,2.0,8.0,73,0.00,,,0.00,Wunderground v.1.15,2013-12-15 16:49:00,
2013-12-15 10:54:00,45.3,37.2,30.29,NE,34,4.0,6.0,73,0.00,,,0.00,Wunderground v.1.15,2013-12-15 16:54:00,
2013-12-15 10:59:00,45.5,37.7,30.29,ESE,108,2.0,7.0,74,0.00,,,0.00,Wunderground v.1.15,2013-12-15 16:59:00,
2013-12-15 11:04:00,45.7,37.5,30.28,NNW,333,0.0,7.0,73,0.00,,,0.00,Wunderground v.1.15,2013-12-15 17:04:00,
2013-12-15 11:09:00,45.7,37.5,30.29,West,264,2.0,7.0,73,0.00,,,0.00,Wunderground v.1.15,2013-12-15 17:09:00,
2013-12-15 11:14:00,45.5,36.6,30.29,NNE,22,6.0,7.0,71,0.00,,,0.00,Wunderground v.1.15,2013-12-15 17:14:00,
2013-12-15 11:19:00,46.1,37.6,30.29,NE,38,1.0,7.0,72,0.00,,,0.00,Wunderground v.1.15,2013-12-15 17:19:00,
2013-12-15 11:24:00,46.2,37.0,30.29,NNW,345,1.0,7.0,70,0.00,,,0.00,Wunderground v.1.15,2013-12-15 17:24:00,
2013-12-15 11:29:00,46.9,38.0,30.28,NNW,346,2.0,7.0,71,0.00,,,0.00,Wunderground v.1.15,2013-12-15 17:29:00,
2013-12-15 11:34:00,46.9,37.6,30.28,West,279,1.0,10.0,70,0.00,,,0.00,Wunderground v.1.15,2013-12-15 17:34:00,
2013-12-15 11:39:00,47.0,37.4,30.28,WNW,299,3.0,10.0,69,0.00,,,0.00,Wunderground v.1.15,2013-12-15 17:39:00,
2013-12-15 11:44:00,47.2,36.8,30.28,ENE,72,2.0,10.0,67,0.00,,,0.00,Wunderground v.1.15,2013-12-15 17:44:00,
2013-12-15 11:49:00,47.2,37.2,30.28,NE,43,6.0,15.0,68,0.00,,,0.00,Wunderground v.1.15,2013-12-15 17:49:00,
2013-12-15 11:54:00,46.7,35.9,30.27,NNE,32,5.0,11.0,66,0.00,,,0.00,Wunderground v.1.15,2013-12-15 17:54:00,
2013-12-15 11:59:00,46.8,36.8,30.27,NNW,340,4.0,13.0,68,0.00,,,0.00,Wunderground v.1.15,2013-12-15 17:59:00,
2013-12-15 12:04:00,47.0,37.0,30.27,ENE,63,2.0,12.0,68,0.00,,,0.00,Wunderground v.1.15,2013-12-15 18:04:00,
2013-12-15 12:09:00,47.5,37.5,30.27,ENE,58,8.0,12.0,68,0.00,,,0.00,Wunderground v.1.15,2013-12-15 18:09:00,
2013-12-15 12:14:00,47.5,37.8,30.26,NW,325,3.0,8.0,69,0.00,,,0.00,Wunderground v.1.15,2013-12-15 18:14:00,
2013-12-15 12:19:00,48.2,37.8,30.26,NW,309,1.0,8.0,67,0.00,,,0.00,Wunderground v.1.15,2013-12-15 18:19:00,
2013-12-15 12:24:00,48.5,38.0,30.26,East,87,2.0,4.0,67,0.00,,,0.00,Wunderground v.1.15,2013-12-15 18:24:00,
2013-12-15 12:29:00,49.0,38.1,30.26,NNE,22,1.0,5.0,66,0.00,,,0.00,Wunderground v.1.15,2013-12-15 18:29:00,
2013-12-15 12:34:00,48.7,37.5,30.25,North,356,4.0,11.0,65,0.00,,,0.00,Wunderground v.1.15,2013-12-15 18:34:00,
2013-12-15 12:39:00,49.3,39.2,30.25,WNW,301,1.0,11.0,68,0.00,,,0.00,Wunderground v.1.15,2013-12-15 18:39:00,
2013-12-15 12:44:00,49.9,38.6,30.25,WNW,294,2.0,4.0,65,0.00,,,0.00,Wunderground v.1.15,2013-12-15 18:44:00,
2013-12-15 12:49:00,49.9,38.2,30.25,NW,304,3.0,4.0,64,0.00,,,0.00,Wunderground v.1.15,2013-12-15 18:49:00,
2013-12-15 12:54:00,49.7,37.6,30.24,NE,44,4.0,6.0,63,0.00,,,0.00,Wunderground v.1.15,2013-12-15 18:54:00,
2013-12-15 12:59:00,49.7,38.4,30.24,West,266,1.0,6.0,65,0.00,,,0.00,Wunderground v.1.15,2013-12-15 18:59:00,
2013-12-15 13:04:00,50.3,39.0,30.24,SE,124,1.0,4.0,65,0.00,,,0.00,Wunderground v.1.15,2013-12-15 19:04:00,
2013-12-15 13:09:00,50.8,38.2,30.24,NW,326,2.0,2.0,62,0.00,,,0.00,Wunderground v.1.15,2013-12-15 19:09:00,
2013-12-15 13:14:00,50.8,38.7,30.24,North,353,1.0,6.0,63,0.00,,,0.00,Wunderground v.1.15,2013-12-15 19:14:00,
2013-12-15 13:19:00,50.8,38.7,30.24,ESE,109,3.0,3.0,63,0.00,,,0.00,Wunderground v.1.15,2013-12-15 19:19:00,
2013-12-15 13:24:00,51.4,39.2,30.24,NNW,335,3.0,5.0,63,0.00,,,0.00,Wunderground v.1.15,2013-12-15 19:24:00,
2013-12-15 13:29:00,51.8,38.8,30.24,West,278,2.0,3.0,61,0.00,,,0.00,Wunderground v.1.15,2013-12-15 19:29:00,
2013-12-15 13:34:00,51.8,38.3,30.24,WNW,301,2.0,5.0,60,0.00,,,0.00,Wunderground v.1.15,2013-12-15 19:34:00,
2013-12-15 13:39:00,51.8,38.8,30.23,NW,323,0.0,2.0,61,0.00,,,0.00,Wunderground v.1.15,2013-12-15 19:39:00,
2013-12-15 13:44:00,52.2,38.7,30.23,East,85,1.0,4.0,60,0.00,,,0.00,Wunderground v.1.15,2013-12-15 19:44:00,
2013-12-15 13:47:00,52.2,38.7,30.23,NW,326,3.0,4.0,60,0.00,,,0.00,Wunderground v.1.15,2013-12-15 19:47:00,
2013-12-15 13:52:00,52.6,39.5,30.23,NNW,329,1.0,2.0,61,0.00,,,0.00,Wunderground v.1.15,2013-12-15 19:52:00,
2013-12-15 13:57:00,52.4,38.5,30.23,WNW,298,1.0,4.0,59,0.00,,,0.00,Wunderground v.1.15,2013-12-15 19:57:00,
2013-12-15 14:02:00,52.1,38.2,30.23,NW,307,2.0,4.0,59,0.00,,,0.00,Wunderground v.1.15,2013-12-15 20:02:00,
2013-12-15 14:07:00,51.9,38.0,30.23,NW,322,3.0,5.0,59,0.00,,,0.00,Wunderground v.1.15,2013-12-15 20:07:00,
2013-12-15 14:12:00,51.9,38.4,30.23,ENE,72,5.0,8.0,60,0.00,,,0.00,Wunderground v.1.15,2013-12-15 20:12:00,
2013-12-15 14:17:00,51.7,38.3,30.23,West,260,1.0,8.0,60,0.00,,,0.00,Wunderground v.1.15,2013-12-15 20:17:00,
2013-12-15 14:22:00,52.0,38.1,30.23,NNW,342,0.0,3.0,59,0.00,,,0.00,Wunderground v.1.15,2013-12-15 20:22:00,
2013-12-15 14:27:00,51.9,37.6,30.23,ENE,57,4.0,4.0,58,0.00,,,0.00,Wunderground v.1.15,2013-12-15 20:27:00,
2013-12-15 14:32:00,52.1,38.6,30.23,ESE,103,1.0,2.0,60,0.00,,,0.00,Wunderground v.1.15,2013-12-15 20:32:00,
2013-12-15 14:37:00,52.4,38.0,30.23,NW,318,0.0,6.0,58,0.00,,,0.00,Wunderground v.1.15,2013-12-15 20:37:00,
2013-12-15 14:42:00,52.2,37.9,30.23,ENE,57,2.0,4.0,58,0.00,,,0.00,Wunderground v.1.15,2013-12-15 20:42:00,
2013-12-15 14:47:00,52.0,38.1,30.23,NW,304,1.0,4.0,59,0.00,,,0.00,Wunderground v.1.15,2013-12-15 20:47:00,
2013-12-15 14:52:00,52.1,37.8,30.23,WSW,248,3.0,3.0,58,0.00,,,0.00,Wunderground v.1.15,2013-12-15 20:52:00,
2013-12-15 14:57:00,52.2,37.9,30.23,NW,316,2.0,3.0,58,0.00,,,0.00,Wunderground v.1.15,2013-12-15 20:57:00,
2013-12-15 15:02:00,52.2,38.3,30.23,SSW,205,0.0,3.0,59,0.00,,,0.00,Wunderground v.1.15,2013-12-15 21:02:00,
2013-12-15 15:07:00,52.4,37.6,30.23,NW,326,2.0,5.0,57,0.00,,,0.00,Wunderground v.1.15,2013-12-15 21:07:00,
2013-12-15 15:12:00,52.3,37.5,30.23,North,356,1.0,6.0,57,0.00,,,0.00,Wunderground v.1.15,2013-12-15 21:12:00,
2013-12-15 15:17:00,52.1,37.8,30.23,NW,323,1.0,6.0,58,0.00,,,0.00,Wunderground v.1.15,2013-12-15 21:17:00,
2013-12-15 15:22:00,52.1,37.3,30.23,North,359,3.0,4.0,57,0.00,,,0.00,Wunderground v.1.15,2013-12-15 21:22:00,
2013-12-15 15:27:00,52.1,37.8,30.23,West,266,0.0,7.0,58,0.00,,,0.00,Wunderground v.1.15,2013-12-15 21:27:00,
2013-12-15 15:32:00,52.2,37.4,30.23,NNW,329,0.0,2.0,57,0.00,,,0.00,Wunderground v.1.15,2013-12-15 21:32:00,
2013-12-15 15:37:00,52.1,37.3,30.23,NNW,335,0.0,6.0,57,0.00,,,0.00,Wunderground v.1.15,2013-12-15 21:37:00,
2013-12-15 15:42:00,51.8,37.0,30.23,North,357,2.0,3.0,57,0.00,,,0.00,Wunderground v.1.15,2013-12-15 21:42:00,
2013-12-15 15:46:00,51.6,36.9,30.23,NNE,33,3.0,6.0,57,0.00,,,0.00,Wunderground v.1.15,2013-12-15 21:46:00,
2013-12-15 15:51:00,51.3,36.6,30.24,NNE,15,2.0,9.0,57,0.00,,,0.00,Wunderground v.1.15,2013-12-15 21:51:00,
2013-12-15 15:56:00,51.3,37.9,30.24,NW,318,0.0,9.0,60,0.00,,,0.00,Wunderground v.1.15,2013-12-15 21:56:00,
2013-12-15 16:01:00,51.2,37.4,30.24,WSW,255,1.0,4.0,59,0.00,,,0.00,Wunderground v.1.15,2013-12-15 22:01:00,
2013-12-15 16:07:00,50.8,36.5,30.24,NE,44,2.0,7.0,58,0.00,,,0.00,Wunderground v.1.15,2013-12-15 22:07:00,
2013-12-15 16:12:00,50.5,37.1,30.24,NNW,332,0.0,2.0,60,0.00,,,0.00,Wunderground v.1.15,2013-12-15 22:12:00,
2013-12-15 16:17:00,50.3,36.9,30.24,NNE,20,1.0,4.0,60,0.00,,,0.00,Wunderground v.1.15,2013-12-15 22:17:00,
2013-12-15 16:22:00,50.1,38.0,30.24,NE,46,0.0,1.0,63,0.00,,,0.00,Wunderground v.1.15,2013-12-15 22:22:00,
2013-12-15 16:27:00,49.8,37.7,30.24,NNW,344,0.0,3.0,63,0.00,,,0.00,Wunderground v.1.15,2013-12-15 22:27:00,
2013-12-15 16:32:00,49.5,37.4,30.24,North,1,1.0,1.0,63,0.00,,,0.00,Wunderground v.1.15,2013-12-15 22:32:00,
2013-12-15 16:37:00,49.1,37.8,30.25,NW,309,0.0,1.0,65,0.00,,,0.00,Wunderground v.1.15,2013-12-15 22:37:00,
2013-12-15 16:42:00,48.7,37.5,30.25,North,9,0.0,1.0,65,0.00,,,0.00,Wunderground v.1.15,2013-12-15 22:42:00,
2013-12-15 16:47:00,48.4,37.6,30.25,North,11,0.0,1.0,66,0.00,,,0.00,Wunderground v.1.15,2013-12-15 22:47:00,
2013-12-15 16:52:00,47.9,37.8,30.25,North,11,0.0,1.0,68,0.00,,,0.00,Wunderground v.1.15,2013-12-15 22:52:00,
2013-12-15 16:57:00,47.5,37.5,30.25,North,6,0.0,3.0,68,0.00,,,0.00,Wunderground v.1.15,2013-12-15 22:57:00,
2013-12-15 17:02:00,47.1,37.1,30.25,North,6,0.0,0.0,68,0.00,,,0.00,Wunderground v.1.15,2013-12-15 23:02:00,
2013-12-15 17:07:00,46.7,37.1,30.25,North,6,0.0,0.0,69,0.00,,,0.00,Wunderground v.1.15,2013-12-15 23:07:00,
2013-12-15 17:12:00,46.2,37.0,30.26,North,6,0.0,0.0,70,0.00,,,0.00,Wunderground v.1.15,2013-12-15 23:12:00,
2013-12-15 17:17:00,45.8,36.9,30.26,NNW,333,0.0,2.0,71,0.00,,,0.00,Wunderground v.1.15,2013-12-15 23:17:00,
2013-12-15 17:22:00,45.5,37.3,30.26,NNW,333,0.0,0.0,73,0.00,,,0.00,Wunderground v.1.15,2013-12-15 23:22:00,
2013-12-15 17:27:00,45.2,37.1,30.26,North,5,0.0,2.0,73,0.00,,,0.00,Wunderground v.1.15,2013-12-15 23:27:00,
2013-12-15 17:32:00,44.9,36.8,30.26,NNE,13,0.0,2.0,73,0.00,,,0.00,Wunderground v.1.15,2013-12-15 23:32:00,
2013-12-15 17:37:00,44.7,36.6,30.26,NNE,13,0.0,2.0,73,0.00,,,0.00,Wunderground v.1.15,2013-12-15 23:37:00,
2013-12-15 17:42:00,44.4,36.6,30.26,North,6,1.0,2.0,74,0.00,,,0.00,Wunderground v.1.15,2013-12-15 23:42:00,
2013-12-15 17:47:00,44.3,36.5,30.26,North,8,0.0,2.0,74,0.00,,,0.00,Wunderground v.1.15,2013-12-15 23:47:00,
2013-12-15 17:52:00,44.2,36.8,30.26,NNE,25,0.0,0.0,75,0.00,,,0.00,Wunderground v.1.15,2013-12-15 23:52:00,
2013-12-15 17:57:00,43.9,36.5,30.26,NNE,23,0.0,1.0,75,0.00,,,0.00,Wunderground v.1.15,2013-12-15 23:57:00,
2013-12-15 18:02:00,43.4,36.0,30.26,NNE,23,0.0,0.0,75,0.00,,,0.00,Wunderground v.1.15,2013-12-16 00:02:00,
2013-12-15 18:07:00,42.8,36.1,30.26,NNE,23,0.0,0.0,77,0.00,,,0.00,Wunderground v.1.15,2013-12-16 00:07:00,
2013-12-15 18:12:00,42.4,36.0,30.26,NNE,23,0.0,0.0,78,0.00,,,0.00,Wunderground v.1.15,2013-12-16 00:12:00,
2013-12-15 18:17:00,41.9,36.2,30.27,NNE,23,0.0,0.0,80,0.00,,,0.00,Wunderground v.1.15,2013-12-16 00:17:00,
2013-12-15 18:22:00,41.8,36.1,30.27,NNE,25,0.0,0.0,80,0.00,,,0.00,Wunderground v.1.15,2013-12-16 00:22:00,
2013-12-15 18:27:00,41.5,35.8,30.27,NNE,25,0.0,0.0,80,0.00,,,0.00,Wunderground v.1.15,2013-12-16 00:27:00,
2013-12-15 18:32:00,41.2,35.8,30.28,NNE,25,0.0,0.0,81,0.00,,,0.00,Wunderground v.1.15,2013-12-16 00:32:00,
2013-12-15 18:37:00,40.9,36.1,30.28,NNE,25,0.0,0.0,83,0.00,,,0.00,Wunderground v.1.15,2013-12-16 00:37:00,
2013-12-15 18:42:00,40.8,36.3,30.28,NNE,25,0.0,1.0,84,0.00,,,0.00,Wunderground v.1.15,2013-12-16 00:42:00,
2013-12-15 18:47:00,41.1,36.0,30.28,NNE,26,0.0,1.0,82,0.00,,,0.00,Wunderground v.1.15,2013-12-16 00:47:00,
2013-12-15 18:52:00,41.1,36.0,30.28,NNE,25,0.0,0.0,82,0.00,,,0.00,Wunderground v.1.15,2013-12-16 00:52:00,
2013-12-15 18:57:00,41.1,36.0,30.28,NNE,26,0.0,0.0,82,0.00,,,0.00,Wunderground v.1.15,2013-12-16 00:57:00,
2013-12-15 19:02:00,41.3,35.9,30.29,NNE,25,0.0,0.0,81,0.00,,,0.00,Wunderground v.1.15,2013-12-16 01:02:00,
2013-12-15 19:07:00,41.1,35.7,30.29,NNE,25,0.0,0.0,81,0.00,,,0.00,Wunderground v.1.15,2013-12-16 01:07:00,
2013-12-15 19:12:00,40.8,35.7,30.29,NNE,24,0.0,0.0,82,0.00,,,0.00,Wunderground v.1.15,2013-12-16 01:12:00,
2013-12-15 19:17:00,40.6,36.4,30.29,NNE,25,0.0,0.0,85,0.00,,,0.00,Wunderground v.1.15,2013-12-16 01:17:00,
2013-12-15 19:22:00,40.1,36.2,30.29,NNE,24,0.0,0.0,86,0.00,,,0.00,Wunderground v.1.15,2013-12-16 01:22:00,
2013-12-15 19:27:00,39.6,35.8,30.29,NNE,25,0.0,0.0,86,0.00,,,0.00,Wunderground v.1.15,2013-12-16 01:27:00,
2013-12-15 19:32:00,39.2,35.4,30.29,NNE,25,0.0,0.0,86,0.00,,,0.00,Wunderground v.1.15,2013-12-16 01:32:00,
2013-12-15 19:37:00,38.7,35.2,30.30,NNE,26,0.0,0.0,87,0.00,,,0.00,Wunderground v.1.15,2013-12-16 01:37:00,
2013-12-15 19:42:00,38.3,35.1,30.30,NNE,25,0.0,0.0,88,0.00,,,0.00,Wunderground v.1.15,2013-12-16 01:42:00,
2013-12-15 19:47:00,38.3,35.3,30.30,NNE,25,0.0,0.0,89,0.00,,,0.00,Wunderground v.1.15,2013-12-16 01:47:00,
2013-12-15 19:52:00,38.4,35.4,30.30,NNE,25,0.0,0.0,89,0.00,,,0.00,Wunderground v.1.15,2013-12-16 01:52:00,
2013-12-15 19:57:00,38.6,35.6,30.30,NNE,25,0.0,0.0,89,0.00,,,0.00,Wunderground v.1.15,2013-12-16 01:57:00,
2013-12-15 20:02:00,38.5,35.5,30.31,NNE,25,0.0,0.0,89,0.00,,,0.00,Wunderground v.1.15,2013-12-16 02:02:00,
2013-12-15 20:07:00,38.4,35.4,30.31,NNE,25,0.0,0.0,89,0.00,,,0.00,Wunderground v.1.15,2013-12-16 02:07:00,
2013-12-15 20:12:00,38.2,35.2,30.31,NNE,25,0.0,0.0,89,0.00,,,0.00,Wunderground v.1.15,2013-12-16 02:12:00,
2013-12-15 20:17:00,37.9,34.9,30.30,NNE,25,0.0,0.0,89,0.00,,,0.00,Wunderground v.1.15,2013-12-16 02:17:00,
2013-12-15 20:22:00,37.8,34.8,30.31,NNE,25,0.0,0.0,89,0.00,,,0.00,Wunderground v.1.15,2013-12-16 02:22:00,
2013-12-15 20:27:00,37.6,34.9,30.31,NNE,26,0.0,0.0,90,0.00,,,0.00,Wunderground v.1.15,2013-12-16 02:27:00,
2013-12-15 20:32:00,37.5,34.8,30.31,NNE,25,0.0,0.0,90,0.00,,,0.00,Wunderground v.1.15,2013-12-16 02:32:00,
2013-12-15 20:37:00,37.7,35.0,30.32,NNE,26,0.0,0.0,90,0.00,,,0.00,Wunderground v.1.15,2013-12-16 02:37:00,
2013-12-15 20:42:00,37.7,35.0,30.32,NNE,24,0.0,0.0,90,0.00,,,0.00,Wunderground v.1.15,2013-12-16 02:42:00,
2013-12-15 20:47:00,37.5,34.8,30.32,NNE,25,0.0,0.0,90,0.00,,,0.00,Wunderground v.1.15,2013-12-16 02:47:00,
2013-12-15 20:52:00,37.2,34.8,30.32,NNE,25,0.0,0.0,91,0.00,,,0.00,Wunderground v.1.15,2013-12-16 02:52:00,
2013-12-15 20:57:00,36.7,34.0,30.32,NNE,25,0.0,0.0,90,0.00,,,0.00,Wunderground v.1.15,2013-12-16 02:57:00,
2013-12-15 21:02:00,36.3,33.9,30.32,NNE,25,0.0,0.0,91,0.00,,,0.00,Wunderground v.1.15,2013-12-16 03:02:00,
2013-12-15 21:07:00,36.4,34.3,30.32,NNE,25,0.0,0.0,92,0.00,,,0.00,Wunderground v.1.15,2013-12-16 03:07:00,
2013-12-15 21:12:00,36.5,34.4,30.33,NNE,25,0.0,0.0,92,0.00,,,0.00,Wunderground v.1.15,2013-12-16 03:12:00,
2013-12-15 21:17:00,36.3,34.2,30.32,NNE,25,0.0,0.0,92,0.00,,,0.00,Wunderground v.1.15,2013-12-16 03:17:00,
2013-12-15 21:22:00,36.4,34.6,30.33,NNE,25,0.0,0.0,93,0.00,,,0.00,Wunderground v.1.15,2013-12-16 03:22:00,
2013-12-15 21:27:00,36.4,34.6,30.33,NNE,24,0.0,0.0,93,0.00,,,0.00,Wunderground v.1.15,2013-12-16 03:27:00,
2013-12-15 21:32:00,36.4,34.6,30.33,NNE,25,0.0,0.0,93,0.00,,,0.00,Wunderground v.1.15,2013-12-16 03:32:00,
2013-12-15 21:37:00,36.3,34.5,30.33,NNE,26,0.0,0.0,93,0.00,,,0.00,Wunderground v.1.15,2013-12-16 03:37:00,
2013-12-15 21:39:00,36.3,34.5,30.33,NNE,26,0.0,0.0,93,0.00,,,0.00,Wunderground v.1.15,2013-12-16 03:39:00,
2013-12-15 21:44:00,36.3,34.5,30.33,NNE,25,0.0,0.0,93,0.00,,,0.00,Wunderground v.1.15,2013-12-16 03:44:00,
2013-12-15 21:49:00,36.2,34.4,30.34,NNE,25,0.0,0.0,93,0.00,,,0.00,Wunderground v.1.15,2013-12-16 03:49:00,
2013-12-15 21:54:00,36.1,34.3,30.33,NNE,25,0.0,0.0,93,0.00,,,0.00,Wunderground v.1.15,2013-12-16 03:54:00,
2013-12-15 21:59:00,35.9,34.1,30.33,NNE,25,0.0,0.0,93,0.00,,,0.00,Wunderground v.1.15,2013-12-16 03:59:00,
2013-12-15 22:04:00,35.6,33.8,30.33,NNE,26,0.0,0.0,93,0.00,,,0.00,Wunderground v.1.15,2013-12-16 04:04:00,
2013-12-15 22:09:00,35.2,33.4,30.33,NNE,26,0.0,0.0,93,0.00,,,0.00,Wunderground v.1.15,2013-12-16 04:09:00,
2013-12-15 22:14:00,34.8,33.0,30.33,NNE,25,0.0,0.0,93,0.00,,,0.00,Wunderground v.1.15,2013-12-16 04:14:00,
2013-12-15 22:19:00,34.6,33.1,30.33,NNE,26,0.0,0.0,94,0.00,,,0.00,Wunderground v.1.15,2013-12-16 04:19:00,
2013-12-15 22:24:00,34.5,33.0,30.33,NNE,26,0.0,0.0,94,0.00,,,0.00,Wunderground v.1.15,2013-12-16 04:24:00,
2013-12-15 22:29:00,34.5,33.0,30.33,NNE,25,0.0,0.0,94,0.00,,,0.00,Wunderground v.1.15,2013-12-16 04:29:00,
2013-12-15 22:34:00,34.6,33.1,30.33,NNE,26,0.0,0.0,94,0.00,,,0.00,Wunderground v.1.15,2013-12-16 04:34:00,
2013-12-15 22:39:00,34.9,33.6,30.33,NNE,25,0.0,0.0,95,0.00,,,0.00,Wunderground v.1.15,2013-12-16 04:39:00,
2013-12-15 22:44:00,35.2,33.9,30.33,NNE,27,0.0,1.0,95,0.00,,,0.00,Wunderground v.1.15,2013-12-16 04:44:00,
2013-12-15 22:49:00,35.4,34.1,30.33,NNE,26,0.0,1.0,95,0.00,,,0.00,Wunderground v.1.15,2013-12-16 04:49:00,
2013-12-15 22:54:00,35.5,34.2,30.33,NE,56,0.0,1.0,95,0.00,,,0.00,Wunderground v.1.15,2013-12-16 04:54:00,
2013-12-15 22:59:00,35.6,34.0,30.33,NE,56,0.0,1.0,94,0.00,,,0.00,Wunderground v.1.15,2013-12-16 04:59:00,
2013-12-15 23:01:00,35.6,34.0,30.33,NE,56,0.0,0.0,94,0.00,,,0.00,Wunderground v.1.15,2013-12-16 05:01:00,
2013-12-15 23:06:00,35.2,33.6,30.33,NE,54,0.0,1.0,94,0.00,,,0.00,Wunderground v.1.15,2013-12-16 05:06:00,
2013-12-15 23:11:00,35.0,33.4,30.33,NE,55,0.0,0.0,94,0.00,,,0.00,Wunderground v.1.15,2013-12-16 05:11:00,
2013-12-15 23:16:00,34.8,33.2,30.33,NE,54,0.0,0.0,94,0.00,,,0.00,Wunderground v.1.15,2013-12-16 05:16:00,
2013-12-15 23:21:00,34.7,33.4,30.33,NE,55,0.0,0.0,95,0.00,,,0.00,Wunderground v.1.15,2013-12-16 05:21:00,
2013-12-15 23:26:00,34.6,33.3,30.33,NE,55,0.0,0.0,95,0.00,,,0.00,Wunderground v.1.15,2013-12-16 05:26:00,
2013-12-15 23:31:00,34.5,33.2,30.33,NE,56,0.0,0.0,95,0.00,,,0.00,Wunderground v.1.15,2013-12-16 05:31:00,
2013-12-15 23:36:00,34.2,32.9,30.32,NE,56,0.0,0.0,95,0.00,,,0.00,Wunderground v.1.15,2013-12-16 05:36:00,
2013-12-15 23:41:00,34.5,33.2,30.32,ENE,72,0.0,1.0,95,0.00,,,0.00,Wunderground v.1.15,2013-12-16 05:41:00,
2013-12-15 23:46:00,34.8,33.5,30.32,ENE,72,1.0,1.0,95,0.00,,,0.00,Wunderground v.1.15,2013-12-16 05:46:00,
2013-12-15 23:51:00,35.1,33.8,30.32,NE,37,1.0,1.0,95,0.00,,,0.00,Wunderground v.1.15,2013-12-16 05:51:00,
2013-12-15 23:56:00,35.1,33.8,30.32,NE,37,0.0,1.0,95,0.00,,,0.00,Wunderground v.1.15,2013-12-16 05:56:00,